Wind_Speed
5 4 4 4 4 4 4 4 3 3 2 3 4 4 4 4 3 3 4 4 4 4 4 6 6 7 8 9 9 10 6 4 3 4 3 4 6 6 8 11 12 6 4 4 5 6 5 5 5 3 3 5 7 7
5 5 4 3 4 4 4 4 4 4 4 5 5 6 6 6 6 5 5 5 6 6 6 6 5 6 6 7 8 8 7 5 1 2 3 4 8 10 13 8 10 6 7 8 6 7 13 9 4 1 3 5 6 7
5 6 5 6 6 5 5 5 6 6 6 6 7 7 7 7 8 7 7 7 8 9 9 6 6 7 5 5 5 7 7 5 1 3 5 6 7 10 9 10 14 11 12 10 9 3 4 4 5 5 4 5 6 10
3 4 5 6 5 5 6 7 7 7 7 7 7 7 9 9 9 9 9 9 11 11 9 7 8 8 8 6 5 3 3 5 3 2 5 8 10 8 12 13 16 13 9 7 3 4 7 11 11 10 9 9 10 12
5 5 6 6 7 7 7 7 7 9 10 10 10 9 10 10 10 11 12 12 12 11 13 14 15 13 10 9 8 6 5 4 5 6 7 8 9 10 11 12 5 4 3 4 6 10 13 14 14 14 13 12 12 14
3 4 5 6 6 6 8 9 10 10 10 11 11 12 12 12 13 12 12 13 13 13 16 17 13 13 14 13 12 10 9 9 9 10 11 12 10 12 9 9 3 1 4 7 9 11 12 13 14 14 14 13 13 14
7 6 5 6 7 9 10 10 10 11 12 13 13 13 13 14 14 13 12 13 14 15 16 13 12 10 13 16 15 14 13 13 14 15 17 16 15 17 21 18 8 5 6 7 9 10 10 10 11 12 13 12 11 12
11 11 11 11 10 9 9 11 13 13 14 14 15 16 16 16 16 15 16 15 15 16 16 10 14 16 15 14 16 17 17 17 20 20 23 21 22 23 21 6 9 10 10 9 9 9 11 11 10 10 11 10 9 9
10 12 14 15 15 14 14 14 12 11 13 15 17 18 19 19 18 19 19 18 19 17 16 20 19 17 11 14 17 19 20 21 22 25 26 21 27 25 11 9 10 9 5 6 10 10 9 9 10 10 10 9 8 7
10 11 12 13 15 17 18 18 18 18 19 18 17 17 21 21 21 22 22 22 24 24 29 29 27 27 23 20 16 15 15 14 16 18 17 24 32 19 19 19 17 16 15 15 14 13 12 11 10 10 9 9 8 7
13 13 14 15 16 16 16 17 19 20 21 22 22 21 21 23 23 24 14 8 10 13 15 17 15 22 25 25 21 12 11 8 9 12 13 20 34 12 11 20 22 23 20 17 13 15 15 15 14 13 12 12 11 10
16 17 18 18 18 19 19 20 21 21 21 22 23 25 25 24 13 8 6 7 10 7 11 12 13 15 17 20 18 13 15 10 10 12 12 25 29 15 10 14 20 22 24 22 22 19 17 18 17 17 17 16 14 14
20 20 20 20 20 20 20 21 22 24 24 24 24 23 11 8 9 5 6 7 4 7 11 12 16 17 15 12 11 9 9 11 14 12 20 33 26 26 20 19 21 24 26 27 26 24 23 22 22 20 18 18 18 16
20 22 22 23 23 23 23 23 24 24 25 26 19 10 6 5 5 7 11 16 17 20 18 20 20 13 15 11 11 8 11 10 9 18 34 34 28 24 20 22 25 23 28 29 28 27 26 24 22 21 20 21 20 18
21 21 22 23 23 23 23 24 24 26 28 24 14 7 10 13 17 17 19 19 21 22 23 23 22 20 18 13 10 12 8 11 10 23 16 15 19 20 21 18 17 20 24 30 29 28 26 25 24 23 22 23 22 21
24 24 24 24 24 22 23 24 25 27 29 28 25 27 33 36 31 28 22 20 25 27 24 20 22 15 16 13 18 18 17 15 22 16 15 20 24 22 21 18 15 15 19 24 28 28 26 26 25 22 24 26 25 23
25 26 25 25 26 25 26 27 28 29 29 28 36 34 33 35 35 31 28 26 27 24 20 22 23 20 16 20 30 29 37 38 33 35 29 29 28 25 24 18 15 15 15 20 26 28 27 26 27 29 30 29 26 25
26 28 28 26 28 28 28 29 30 32 37 37 36 34 35 36 36 35 36 32 32 35 37 37 33 39 44 44 40 30 21 20 25 26 23 19 22 26 25 24 23 22 22 22 24 27 29 30 31 31 29 28 29 28
27 29 30 29 28 30 30 33 29 32 38 39 37 36 39 38 37 35 36 36 35 33 40 46 37 46 53 55 53 49 42 39 40 41 32 25 23 22 25 27 25 19 17 18 19 21 24 28 30 31 30 31 31 30
29 30 31 32 31 29 29 24 36 36 37 38 40 35 36 37 36 35 34 33 33 30 38 48 58 61 55 49 35 32 33 34 38 46 44 43 42 31 25 22 20 20 21 23 25 26 27 28 29 29 30 31 32 31
30 34 33 33 33 31 32 28 31 30 39 35 38 39 41 40 41 40 38 36 40 45 48 46 49 50 52 57 58 59 57 47 51 39 38 33 28 31 21 19 21 23 23 22 22 22 25 26 25 26 28 30 29 29
32 33 33 33 33 37 39 32 22 23 33 38 41 40 43 45 43 42 40 40 42 42 42 45 46 44 46 49 51 48 46 45 50 59 59 52 44 38 32 27 26 25 25 24 22 25 25 27 28 28 30 30 32 33
36 36 36 37 37 31 17 20 27 33 33 38 40 43 38 46 51 46 45 47 48 44 41 40 42 44 49 47 44 47 46 42 44 47 51 58 63 58 53 41 44 43 38 28 27 30 29 26 27 28 29 31 33 34
36 33 33 21 14 12 26 27 32 31 33 37 42 47 52 50 51 50 54 50 47 38 34 35 37 38 37 40 44 34 36 35 44 48 44 46 50 50 51 59 59 58 55 43 35 29 33 33 30 30 31 32 32 32
32 23 14 21 21 15 27 31 30 34 39 42 47 51 52 42 45 48 57 54 35 32 33 32 33 34 31 30 33 34 35 40 42 37 38 40 47 50 50 51 51 63 63 56 48 39 35 36 39 38 36 36 36 35
22 13 14 15 17 23 25 24 32 32 39 44 43 36 45 51 54 45 64 54 48 51 52 51 37 34 35 30 29 33 35 36 41 44 33 32 35 38 44 48 48 50 59 63 60 52 47 44 41 41 43 44 42 42
31 27 29 31 27 25 30 31 32 37 40 46 48 43 36 28 37 54 58 51 45 43 40 41 48 53 48 42 39 37 35 35 32 37 36 34 28 31 34 40 46 44 46 49 53 62 61 59 56 53 50 48 48 47
40 38 32 24 29 24 31 31 36 40 35 27 35 44 37 51 64 57 54 50 48 46 44 40 39 41 44 41 38 39 32 35 36 28 28 31 25 26 29 34 38 39 40 44 46 47 55 62 64 64 62 58 53 51
41 36 33 27 23 24 27 30 35 35 38 39 46 54 58 60 59 59 57 55 51 47 48 44 32 32 34 36 35 34 29 34 35 32 29 27 26 26 28 31 34 37 39 42 44 45 47 50 55 62 67 65 61 58
37 27 31 27 25 27 25 27 36 39 40 42 47 54 58 58 55 56 60 54 50 49 46 48 36 28 30 31 31 30 29 27 28 33 38 34 28 23 22 27 33 33 34 36 39 41 43 44 46 49 52 53 52 53
24 22 26 25 27 25 28 31 37 42 45 48 42 49 54 51 50 44 43 32 27 25 24 20 15 15 24 28 29 31 31 26 27 30 32 34 21 17 24 26 30 33 34 35 34 34 38 41 42 42 41 42 43 44
17 17 18 24 29 27 28 34 39 44 47 46 37 42 40 43 45 33 36 41 33 28 22 19 21 25 25 32 32 28 26 24 24 30 34 37 33 25 17 13 13 14 18 25 29 30 31 33 33 35 33 29 30 32
20 19 18 23 27 30 30 37 41 47 49 43 35 37 41 41 38 34 37 29 39 38 34 20 18 16 14 17 22 22 21 24 28 29 30 32 34 32 23 20 19 14 16 22 19 18 21 17 26 30 28 26 23 21
Wind_Direction
86 68 51 32 24 27 25 12 7 351 309 275 263 252 241 242 260 295 309 333 349 359 6 1 0 2 356 359 347 350 3 330 267 257 262 273 274 287 284 290 292 277 272 249 226 231 275 291 263 219 311 353 4 11
54 38 26 18 4 359 360 358 357 346 327 307 294 287 280 273 268 262 269 288 302 325 327 326 336 346 0 3 359 356 344 358 219 220 236 267 275 285 296 297 306 289 281 274 253 257 288 293 238 208 27 21 28 54
13 12 1 348 343 335 337 342 346 343 333 321 314 306 296 288 280 276 279 285 293 308 307 310 321 322 334 350 4 359 360 354 52 199 243 262 281 293 297 308 304 309 313 296 304 305 256 184 151 132 99 75 84 87
352 348 342 335 328 325 325 324 325 330 331 326 319 310 304 301 293 289 288 283 289 296 293 302 313 302 303 311 322 332 345 343 340 277 259 270 284 295 301 303 308 304 309 331 9 128 136 138 134 127 118 112 105 98
345 336 334 332 327 321 321 316 313 316 320 322 323 319 309 300 296 295 292 290 286 281 281 293 298 295 282 288 287 287 279 288 299 299 294 295 301 300 309 309 342 7 55 113 126 131 132 132 131 128 122 117 107 99
5 345 330 319 313 312 314 314 312 312 311 310 314 319 318 312 306 299 292 288 286 283 287 294 289 288 277 276 275 276 277 276 276 277 286 289 293 289 286 290 304 119 137 138 140 140 139 137 132 127 123 119 114 108
297 294 304 309 309 306 305 304 302 303 306 306 305 306 308 309 308 303 292 290 286 286 288 292 291 282 275 269 264 267 273 275 276 280 280 278 281 279 280 278 246 213 185 172 161 156 150 142 137 135 135 133 129 121
290 284 281 282 286 295 301 301 300 298 298 299 301 301 302 302 303 303 298 292 289 287 283 265 263 275 279 274 260 263 267 270 276 278 281 280 275 274 278 248 224 213 206 196 183 178 172 168 164 158 155 152 147 139
314 309 304 301 297 293 288 286 293 296 295 294 295 298 300 298 299 298 295 294 289 278 269 267 269 280 271 274 264 264 268 271 274 272 275 277 271 266 287 258 247 238 227 211 209 203 198 190 190 189 183 177 172 165
352 345 331 319 309 304 301 299 297 292 288 288 293 299 302 306 300 295 291 292 286 276 264 268 269 256 262 264 268 261 271 262 265 272 276 267 277 288 275 260 245 235 230 230 223 220 216 214 207 209 208 208 205 204
329 327 326 326 327 329 326 315 304 297 295 293 292 290 291 294 296 297 288 264 269 268 278 287 278 263 256 256 258 258 256 262 265 264 254 269 283 317 294 252 245 237 234 235 217 217 216 215 219 221 225 225 224 225
324 323 322 322 322 322 322 319 317 314 308 299 294 294 296 297 279 247 221 235 253 259 266 293 304 290 271 254 247 257 252 252 251 252 249 262 287 299 288 280 247 241 237 232 230 234 226 226 228 225 227 232 234 238
325 322 322 320 319 320 319 316 315 314 312 309 305 303 302 273 244 228 236 248 274 281 283 299 307 306 289 262 234 240 239 234 249 247 254 268 291 301 293 281 257 243 233 230 228 230 229 229 231 233 234 234 239 244
319 318 316 316 317 318 317 315 313 309 307 306 309 290 271 243 239 276 280 282 284 276 282 291 296 290 290 261 235 243 241 245 241 252 268 296 296 295 290 270 268 260 241 235 233 233 234 237 240 239 237 239 245 249
314 315 314 314 314 314 312 309 306 304 301 296 291 277 264 281 294 292 292 282 283 281 281 279 280 276 269 255 248 231 233 227 233 260 303 305 304 301 294 287 268 250 245 234 234 237 239 239 241 241 241 245 248 248
308 312 313 312 313 314 310 306 302 297 294 289 281 290 300 296 291 285 281 273 272 275 280 279 267 259 249 229 229 226 232 230 256 290 294 295 299 298 290 285 277 266 251 232 232 237 239 239 243 245 241 244 248 251
300 302 305 309 312 314 312 309 306 300 294 297 302 307 302 299 297 292 285 274 266 267 279 269 251 245 244 230 236 238 242 255 264 273 282 289 293 296 281 266 274 279 277 256 236 234 236 237 237 238 241 246 249 254
296 301 305 311 311 311 311 309 307 301 304 309 306 311 309 307 302 298 293 278 261 257 260 267 264 251 243 247 248 250 253 259 268 274 283 287 287 273 266 275 285 291 274 255 246 239 236 238 241 244 246 247 248 250
299 302 304 308 310 312 312 310 310 304 305 305 314 316 310 305 301 298 292 288 284 274 260 257 258 253 250 250 254 260 263 258 259 258 254 270 287 291 280 277 270 267 263 256 252 251 250 248 249 248 247 247 250 252
300 302 305 310 312 313 311 306 308 303 309 312 315 316 310 308 305 298 294 291 289 282 265 255 253 254 258 258 258 260 258 258 261 261 266 254 256 278 271 268 259 260 263 264 263 261 258 255 253 251 250 249 250 253
304 303 308 309 309 309 306 300 300 307 309 311 319 316 311 310 306 302 294 292 280 272 269 264 265 265 264 268 269 262 255 251 264 262 264 254 238 241 238 237 255 261 256 252 252 256 258 256 255 254 254 254 255 257
300 301 303 302 304 307 303 307 305 320 313 314 315 317 313 311 310 305 301 288 279 278 278 280 275 269 267 266 269 272 270 265 258 254 255 257 243 236 239 232 236 237 237 236 251 252 250 252 254 252 249 251 255 257
301 303 304 305 307 304 300 307 319 321 318 317 321 318 311 312 309 310 297 292 293 289 286 283 281 279 265 270 265 267 265 265 265 255 252 253 251 244 245 245 249 246 233 246 255 250 252 251 253 255 253 251 253 258
295 300 302 299 285 281 299 311 319 319 314 320 318 316 315 314 313 307 301 296 293 296 295 292 294 289 285 282 281 262 282 274 268 264 260 258 261 261 258 257 246 243 242 246 243 249 248 246 248 252 254 255 257 259
294 297 278 276 282 291 309 307 318 322 321 326 320 315 317 311 303 301 299 300 289 284 292 301 298 289 294 292 285 282 280 282 283 278 263 259 260 262 261 259 253 241 239 242 240 242 241 240 246 248 252 256 259 261
274 260 247 269 286 301 301 296 314 316 314 317 310 313 311 306 304 296 306 298 293 292 292 291 285 281 276 284 295 281 273 271 273 276 264 259 265 267 263 258 255 248 244 247 244 238 245 241 241 246 249 251 254 258
266 261 277 295 300 294 286 294 303 303 306 311 315 313 314 298 304 314 324 320 304 301 302 289 283 290 293 295 293 306 288 291 277 276 277 274 261 252 254 260 257 252 251 250 248 243 241 244 245 244 245 247 250 253
271 279 291 305 289 286 287 295 300 302 312 313 306 301 295 295 304 314 314 317 305 295 293 291 289 287 283 288 294 299 300 299 283 284 282 261 263 258 253 254 257 257 255 254 252 246 243 245 246 247 250 251 253 255
276 294 290 283 271 272 279 292 301 310 316 309 305 309 313 317 313 311 318 311 305 298 292 290 288 286 283 281 286 290 291 294 288 284 283 277 273 256 252 257 260 256 252 251 251 253 249 247 247 248 250 252 253 254
289 286 272 267 269 278 294 306 305 307 308 312 310 309 313 316 317 316 315 314 304 297 295 290 284 277 279 280 285 285 285 283 275 280 281 280 291 269 252 248 254 255 254 257 257 254 253 252 249 246 247 249 251 252
274 253 253 266 282 295 305 305 303 306 310 314 310 309 318 322 321 333 342 345 331 319 307 305 297 283 288 294 296 296 291 287 281 273 270 271 298 271 257 255 252 255 258 259 262 264 261 258 256 252 250 250 249 250
231 241 269 284 293 301 305 306 309 311 316 319 315 320 324 326 332 338 347 348 348 347 339 324 301 285 283 276 272 272 273 274 276 272 274 269 287 287 281 271 260 273 269 254 251 247 251 254 252 247 246 241 234 231
244 257 272 291 297 305 311 311 313 315 319 323 319 326 326 336 334 336 338 343 332 326 329 320 306 294 289 279 274 271 267 273 280 280 270 263 271 283 271 264 273 271 275 262 256 240 231 240 248 245 238 229 225 223
Height
3132 3133 3134 3134 3134 3134 3134 3134 3133 3133 3133 3133 3132 3132 3132 3132 3132 3132 3132 3131 3131 3130 3129 3128 3126 3125 3123 3122 3120 3119 3117 3116 3115 3115 3115 3113 3111 3109 3106 3104 3101 3101 3099 3097 3096 3095 3092 3089 3089 3089 3089 3086 3085 3083
3134 3134 3134 3135 3135 3135 3135 3135 3134 3133 3133 3133 3133 3132 3132 3132 3131 3130 3130 3130 3130 3130 3129 3127 3126 3125 3124 3121 3120 3119 3118 3114 3113 3113 3113 3112 3109 3107 3104 3102 3099 3097 3097 3095 3094 3089 3087 3086 3086 3086 3086 3085 3084 3083
3135 3135 3135 3136 3136 3136 3136 3135 3135 3134 3133 3133 3132 3132 3132 3132 3131 3130 3129 3129 3128 3128 3127 3127 3125 3125 3123 3121 3119 3119 3117 3115 3112 3112 3111 3110 3108 3105 3103 3099 3096 3093 3091 3089 3088 3085 3084 3083 3084 3085 3086 3086 3085 3083
3133 3134 3134 3134 3135 3135 3135 3135 3135 3135 3134 3133 3132 3131 3130 3130 3130 3130 3129 3128 3128 3126 3125 3126 3124 3123 3121 3120 3119 3117 3116 3114 3113 3111 3109 3108 3106 3103 3100 3098 3094 3093 3090 3087 3085 3083 3083 3083 3084 3085 3086 3087 3086 3085
3133 3133 3133 3133 3133 3134 3134 3134 3134 3134 3134 3133 3131 3130 3130 3128 3127 3127 3127 3126 3126 3127 3124 3122 3121 3120 3119 3118 3117 3116 3114 3113 3111 3110 3108 3107 3104 3102 3098 3094 3091 3090 3088 3087 3086 3085 3085 3084 3085 3086 3086 3087 3087 3086
3132 3131 3131 3131 3131 3131 3131 3131 3132 3131 3130 3131 3130 3129 3128 3127 3126 3125 3124 3123 3122 3122 3121 3119 3117 3116 3115 3114 3114 3113 3112 3111 3109 3108 3106 3104 3103 3102 3097 3092 3092 3089 3088 3088 3088 3087 3087 3087 3086 3086 3087 3088 3088 3088
3130 3129 3129 3128 3128 3128 3128 3128 3128 3128 3127 3127 3126 3125 3125 3124 3123 3123 3122 3120 3118 3118 3117 3116 3113 3111 3110 3110 3110 3109 3109 3108 3106 3104 3101 3100 3099 3098 3092 3088 3089 3088 3088 3087 3087 3087 3087 3087 3087 3087 3087 3088 3089 3088
3127 3126 3126 3125 3125 3125 3124 3124 3124 3124 3123 3122 3122 3121 3121 3120 3119 3118 3117 3115 3114 3114 3112 3111 3109 3109 3108 3106 3106 3105 3104 3103 3101 3100 3096 3095 3094 3091 3084 3084 3084 3084 3085 3085 3086 3086 3085 3086 3086 3087 3087 3088 3088 3088
3125 3124 3124 3123 3122 3122 3121 3121 3120 3118 3118 3117 3117 3116 3116 3115 3114 3113 3112 3111 3110 3112 3107 3104 3104 3105 3102 3102 3101 3101 3100 3098 3096 3092 3091 3091 3084 3078 3080 3080 3080 3081 3082 3083 3083 3083 3084 3084 3085 3085 3086 3086 3086 3086
3124 3122 3121 3120 3119 3118 3118 3117 3116 3114 3114 3112 3112 3111 3109 3109 3108 3107 3106 3106 3103 3101 3097 3096 3097 3098 3100 3098 3098 3100 3096 3095 3089 3087 3085 3078 3070 3073 3075 3075 3076 3076 3077 3077 3078 3079 3080 3081 3082 3083 3084 3084 3084 3084
3121 3119 3118 3117 3116 3115 3113 3112 3110 3109 3109 3108 3106 3105 3105 3103 3102 3101 3100 3101 3099 3095 3092 3091 3092 3091 3093 3094 3095 3096 3092 3090 3085 3082 3081 3069 3061 3068 3067 3067 3068 3070 3070 3072 3074 3075 3076 3077 3077 3078 3079 3080 3080 3080
3119 3117 3115 3114 3113 3112 3111 3109 3107 3105 3103 3102 3101 3099 3099 3098 3095 3096 3095 3095 3093 3092 3090 3090 3091 3090 3088 3089 3090 3090 3089 3087 3080 3076 3073 3058 3058 3064 3063 3063 3062 3063 3064 3066 3067 3069 3070 3071 3072 3073 3074 3075 3076 3076
3116 3114 3112 3110 3109 3108 3106 3104 3102 3101 3099 3097 3096 3093 3095 3093 3093 3093 3093 3091 3092 3091 3091 3091 3091 3090 3087 3087 3087 3086 3082 3078 3074 3070 3059 3051 3058 3059 3057 3056 3056 3056 3057 3059 3060 3062 3064 3065 3066 3068 3069 3070 3071 3072
3113 3111 3108 3107 3105 3104 3101 3099 3098 3096 3094 3092 3091 3091 3093 3091 3091 3091 3092 3092 3092 3090 3089 3089 3089 3088 3086 3085 3084 3080 3076 3072 3066 3059 3052 3055 3054 3051 3050 3049 3049 3050 3051 3052 3054 3056 3058 3060 3061 3063 3064 3064 3065 3066
3108 3106 3104 3101 3100 3099 3096 3094 3092 3090 3088 3088 3089 3088 3086 3087 3087 3088 3089 3088 3087 3085 3084 3083 3083 3084 3082 3081 3077 3072 3066 3058 3054 3049 3053 3052 3050 3048 3045 3043 3042 3042 3043 3045 3048 3050 3052 3054 3055 3057 3058 3058 3060 3060
3101 3100 3098 3095 3094 3094 3091 3088 3085 3083 3081 3082 3082 3082 3081 3078 3081 3081 3082 3082 3080 3079 3077 3076 3075 3073 3071 3068 3061 3055 3049 3045 3048 3049 3049 3048 3046 3045 3043 3040 3039 3038 3037 3039 3041 3044 3046 3048 3049 3052 3051 3051 3053 3054
3095 3093 3092 3090 3088 3086 3084 3080 3077 3074 3073 3072 3071 3072 3071 3069 3069 3070 3071 3072 3071 3070 3068 3067 3064 3062 3057 3049 3041 3040 3036 3044 3045 3044 3043 3042 3040 3040 3039 3037 3035 3035 3034 3034 3035 3037 3040 3042 3042 3043 3043 3045 3047 3048
3088 3085 3083 3082 3079 3077 3075 3073 3069 3065 3062 3061 3059 3061 3060 3058 3057 3058 3058 3059 3060 3058 3056 3054 3053 3046 3039 3030 3027 3030 3035 3037 3036 3035 3034 3033 3031 3032 3031 3030 3029 3028 3028 3028 3029 3030 3031 3032 3033 3035 3038 3039 3039 3040
3080 3077 3075 3074 3073 3070 3066 3062 3063 3058 3053 3050 3050 3050 3046 3044 3044 3043 3041 3041 3041 3042 3039 3036 3031 3016 3017 3022 3022 3025 3028 3028 3024 3022 3024 3025 3024 3023 3023 3022 3022 3022 3021 3022 3022 3023 3024 3025 3027 3028 3030 3030 3031 3032
3073 3069 3067 3065 3063 3060 3057 3055 3050 3045 3042 3040 3038 3036 3032 3030 3029 3027 3026 3025 3023 3021 3015 3011 3006 3007 3008 3011 3014 3011 3011 3012 3010 3007 3008 3013 3014 3012 3014 3014 3014 3013 3014 3015 3016 3016 3016 3016 3018 3019 3020 3021 3021 3023
3064 3059 3058 3055 3052 3052 3050 3044 3041 3038 3032 3028 3027 3024 3018 3015 3013 3011 3008 3009 3005 3001 2996 2997 2994 2992 2992 2992 2993 2994 2997 2999 2994 2995 2994 2994 2998 3000 3000 3001 3004 3005 3005 3005 3005 3006 3006 3008 3010 3010 3011 3012 3013 3014
3054 3050 3048 3045 3043 3040 3034 3035 3034 3033 3026 3020 3017 3014 3007 3002 3000 2998 2994 2988 2984 2983 2983 2980 2976 2976 2975 2974 2974 2975 2975 2977 2978 2979 2978 2979 2980 2983 2984 2987 2988 2988 2990 2992 2994 2996 2996 2997 2998 2999 3000 3002 3002 3003
3043 3040 3038 3035 3033 3027 3026 3024 3024 3020 3016 3010 3006 3001 2996 2992 2987 2986 2975 2968 2967 2968 2966 2963 2960 2959 2958 2957 2957 2957 2959 2958 2956 2957 2960 2962 2963 2965 2966 2970 2974 2975 2975 2977 2981 2983 2985 2987 2987 2988 2989 2990 2991 2992
3033 3032 3029 3025 3020 3020 3017 3016 3014 3011 3007 3005 2998 2990 2985 2981 2974 2967 2957 2956 2953 2953 2950 2948 2946 2942 2941 2939 2938 2938 2941 2943 2941 2941 2943 2945 2943 2944 2947 2948 2956 2957 2959 2964 2964 2965 2971 2974 2976 2976 2977 2978 2979 2981
3028 3027 3024 3017 3014 3011 3010 3006 3006 3003 2996 2993 2986 2981 2972 2968 2959 2952 2943 2938 2940 2938 2935 2934 2932 2930 2926 2925 2925 2925 2927 2927 2924 2922 2925 2927 2926 2927 2927 2928 2932 2936 2942 2946 2950 2952 2954 2958 2961 2963 2965 2966 2967 2969
3016 3015 3011 3007 3005 3005 3001 2999 2997 2994 2989 2984 2977 2971 2966 2956 2949 2936 2924 2924 2926 2925 2922 2921 2917 2914 2912 2911 2908 2907 2908 2909 2908 2905 2905 2910 2910 2909 2909 2910 2913 2918 2924 2927 2932 2936 2940 2942 2943 2946 2948 2951 2954 2955
3000 3002 2999 3000 2999 2997 2991 2990 2991 2987 2982 2974 2966 2959 2953 2944 2933 2926 2919 2914 2912 2911 2910 2908 2905 2902 2901 2898 2898 2896 2894 2894 2891 2891 2893 2892 2892 2893 2894 2895 2895 2901 2906 2908 2911 2916 2921 2925 2927 2929 2931 2935 2937 2940
2988 2989 2991 2994 2987 2988 2982 2981 2977 2973 2970 2967 2959 2952 2946 2933 2918 2915 2911 2906 2901 2898 2895 2892 2891 2889 2889 2888 2886 2884 2882 2881 2878 2876 2876 2878 2878 2879 2880 2882 2883 2885 2888 2890 2892 2895 2899 2903 2907 2911 2913 2918 2922 2926
2978 2982 2981 2980 2980 2977 2975 2972 2967 2964 2962 2956 2947 2936 2927 2920 2910 2902 2899 2895 2890 2884 2878 2875 2872 2875 2874 2876 2876 2875 2873 2871 2869 2868 2868 2867 2867 2867 2867 2868 2870 2872 2873 2875 2877 2879 2882 2886 2890 2894 2897 2900 2903 2906
2972 2975 2970 2968 2967 2965 2967 2964 2956 2953 2950 2945 2936 2924 2917 2907 2900 2895 2885 2876 2869 2865 2863 2860 2858 2859 2862 2864 2864 2864 2864 2862 2860 2860 2858 2858 2857 2857 2856 2856 2857 2859 2862 2863 2864 2866 2868 2871 2873 2876 2878 2882 2886 2888
2960 2961 2959 2959 2956 2957 2955 2951 2946 2940 2937 2930 2925 2914 2905 2896 2887 2885 2875 2865 2858 2854 2852 2850 2851 2853 2854 2854 2853 2851 2850 2853 2851 2851 2849 2850 2850 2848 2847 2847 2848 2849 2850 2852 2852 2853 2855 2857 2858 2860 2863 2866 2869 2872
2952 2953 2952 2949 2948 2949 2945 2940 2933 2928 2923 2917 2909 2906 2898 2891 2884 2877 2870 2862 2857 2851 2849 2847 2845 2844 2845 2843 2841 2840 2839 2839 2841 2842 2842 2844 2845 2844 2842 2840 2840 2841 2840 2841 2841 2842 2843 2844 2846 2847 2850 2853 2856 2859
2945 2946 2945 2942 2940 2937 2936 2929 2922 2914 2911 2905 2899 2896 2891 2887 2879 2873 2867 2860 2856 2850 2847 2843 2840 2836 2833 2832 2832 2831 2830 2830 2830 2832 2834 2835 2836 2837 2837 2836 2836 2834 2833 2833 2833 2833 2833 2835 2836 2838 2840 2843 2846 2850